TimeCST,TemperatureF,Dew PointF,Humidity,Sea Level PressureIn,VisibilityMPH,Wind Direction,Wind SpeedMPH,Gust SpeedMPH,PrecipitationIn,Events,Conditions,WindDirDegrees,DateUTC
12:53 AM,68.0,59.0,73,29.59,10.0,South,25.3,34.5,N/A,,Overcast,190,2013-01-29 06:53:00
1:07 AM,66.2,59.0,78,29.60,10.0,SSW,23.0,32.2,N/A,,Overcast,200,2013-01-29 07:07:00
1:53 AM,68.0,59.0,73,29.57,10.0,SSW,26.5,36.8,N/A,,Overcast,200,2013-01-29 07:53:00
2:08 AM,68.0,59.0,73,29.60,10.0,SSW,19.6,35.7,N/A,,Overcast,210,2013-01-29 08:08:00
2:19 AM,68.0,59.0,73,29.60,10.0,SSW,27.6,38.0,N/A,,Mostly Cloudy,210,2013-01-29 08:19:00
2:53 AM,66.9,59.0,76,29.57,10.0,SSW,21.9,33.4,N/A,,Overcast,200,2013-01-29 08:53:00
3:53 AM,66.9,59.0,76,29.57,10.0,SSW,24.2,35.7,N/A,,Mostly Cloudy,200,2013-01-29 09:53:00
4:17 AM,66.2,59.0,78,29.59,10.0,SSW,18.4,24.2,N/A,,Mostly Cloudy,210,2013-01-29 10:17:00
4:53 AM,66.0,59.0,78,29.57,10.0,SW,17.3,24.2,N/A,,Mostly Cloudy,220,2013-01-29 10:53:00
5:53 AM,64.9,57.9,78,29.56,10.0,SSW,18.4,27.6,N/A,,Mostly Cloudy,200,2013-01-29 11:53:00
6:22 AM,64.4,57.2,77,29.58,10.0,SSW,16.1,-,N/A,,Mostly Cloudy,210,2013-01-29 12:22:00
6:53 AM,52.0,48.0,86,29.57,9.0,NW,16.1,21.9,N/A,,Overcast,320,2013-01-29 12:53:00
7:00 AM,48.2,44.6,87,29.59,8.0,NW,15.0,25.3,N/A,Rain,Light Rain,320,2013-01-29 13:00:00
7:07 AM,48.2,44.6,87,29.61,5.0,NW,15.0,24.2,N/A,Rain,Rain,310,2013-01-29 13:07:00
7:18 AM,46.4,44.6,93,29.62,3.0,NW,13.8,-,0.11,Rain-Thunderstorm,Thunderstorms and Rain,310,2013-01-29 13:18:00
7:44 AM,44.6,42.8,93,29.62,7.0,NW,10.4,-,0.12,,Overcast,320,2013-01-29 13:44:00
7:53 AM,45.0,42.1,90,29.61,8.0,NW,10.4,-,0.12,,Overcast,320,2013-01-29 13:53:00
8:53 AM,43.0,43.0,100,29.66,4.0,WNW,9.2,-,0.02,Rain,Light Rain,290,2013-01-29 14:53:00
9:00 AM,42.8,42.8,100,29.66,4.0,NW,9.2,-,0.00,Rain,Light Rain,310,2013-01-29 15:00:00
9:51 AM,42.8,41.0,93,29.65,3.0,NNW,5.8,-,0.04,Rain-Thunderstorm,Thunderstorms and Rain,340,2013-01-29 15:51:00
9:53 AM,42.1,41.0,96,29.64,3.0,NNW,6.9,-,0.05,Rain-Thunderstorm,Thunderstorms and Rain,330,2013-01-29 15:53:00
10:01 AM,41.0,41.0,100,29.65,2.5,NNW,6.9,-,0.04,Rain-Thunderstorm,Thunderstorms and Rain,340,2013-01-29 16:01:00
10:23 AM,41.0,39.2,93,29.62,2.5,NNW,9.2,-,0.11,Rain,Rain,340,2013-01-29 16:23:00
10:33 AM,41.0,39.2,93,29.63,2.5,NNW,8.1,-,0.13,Rain,Light Rain,340,2013-01-29 16:33:00
10:43 AM,41.0,39.2,93,29.63,3.0,North,8.1,-,0.13,Rain,Light Rain,350,2013-01-29 16:43:00
10:50 AM,41.0,41.0,100,29.64,4.0,NNE,4.6,-,0.13,Rain,Light Rain,20,2013-01-29 16:50:00
10:53 AM,41.0,41.0,100,29.63,4.0,NNE,3.5,-,0.13,Rain,Light Rain,20,2013-01-29 16:53:00
11:53 AM,39.9,39.9,100,29.59,3.0,NNW,6.9,-,0.06,Rain,Light Rain,340,2013-01-29 17:53:00
12:40 PM,41.0,39.2,93,29.52,1.5,ENE,12.7,-,0.04,Rain,Light Rain,60,2013-01-29 18:40:00
12:53 PM,41.0,39.9,96,29.54,1.5,NNW,9.2,-,0.04,,Overcast,330,2013-01-29 18:53:00
1:53 PM,39.0,37.9,96,29.48,1.5,NNE,11.5,-,0.00,Rain,Light Rain,30,2013-01-29 19:53:00
2:00 PM,39.2,37.4,93,29.51,1.5,North,12.7,-,0.00,Rain,Light Rain,350,2013-01-29 20:00:00
2:14 PM,37.4,37.4,100,29.54,0.5,NNW,12.7,-,0.00,Rain,Light Rain,330,2013-01-29 20:14:00
2:53 PM,37.0,36.0,96,29.47,1.0,North,13.8,23.0,0.00,,Overcast,10,2013-01-29 20:53:00
3:08 PM,37.4,35.6,93,29.52,3.0,North,11.5,-,N/A,,Overcast,360,2013-01-29 21:08:00
3:38 PM,37.4,35.6,93,29.52,3.0,North,12.7,-,N/A,,Overcast,360,2013-01-29 21:38:00
3:53 PM,37.0,37.0,100,29.58,3.0,WNW,9.2,-,N/A,,Overcast,300,2013-01-29 21:53:00
4:53 PM,36.0,36.0,100,29.52,3.0,North,10.4,-,N/A,,Overcast,360,2013-01-29 22:53:00
5:06 PM,35.6,35.6,100,29.53,1.0,North,10.4,-,N/A,,Overcast,10,2013-01-29 23:06:00
5:28 PM,35.6,35.6,100,29.53,0.5,North,12.7,-,N/A,,Overcast,10,2013-01-29 23:28:00
5:53 PM,36.0,34.0,93,29.59,0.5,NNW,11.5,-,N/A,,Overcast,340,2013-01-29 23:53:00
6:10 PM,35.6,33.8,93,29.56,1.0,North,11.5,-,0.00,Rain,Light Rain,360,2013-01-30 00:10:00
6:53 PM,36.0,34.0,93,29.55,1.0,North,12.7,-,0.01,Rain,Light Rain,350,2013-01-30 00:53:00
7:53 PM,36.0,34.0,93,29.58,1.0,NNW,8.1,-,0.03,Rain,Light Rain,330,2013-01-30 01:53:00
8:53 PM,36.0,34.0,93,29.55,1.0,NNE,13.8,-,0.05,Rain,Light Rain,20,2013-01-30 02:53:00
9:08 PM,35.6,33.8,93,29.52,8.0,NNE,15.0,-,0.02,Rain,Light Rain,20,2013-01-30 03:08:00
9:53 PM,35.1,33.1,92,29.55,10.0,North,9.2,-,0.05,Rain,Light Rain,360,2013-01-30 03:53:00
10:53 PM,35.1,33.1,92,29.46,10.0,NE,19.6,25.3,0.02,,Overcast,40,2013-01-30 04:53:00
11:53 PM,34.0,34.0,100,29.55,10.0,NNW,8.1,-,N/A,,Overcast,340,2013-01-30 05:53:00